Simultaneous Nadir Overpasses (SNOs) Predictions

Prediction of SNOs between GOES-15 and METOP-B Satellite Orbit:

Table of predicted SNOs for the next 14.0 days since TLE Epoch: 6/1/2024
Index Date Time (GOES-15) GOES-15 Lat,Lon METOP-B Lat,Lon Distance(km) Time Diff (sec)
1 06/01/2024 05:33:23 -0.19, 61.55 0.65, 57.70 438.23 80
2 06/02/2024 05:10:01 -0.20, 61.53 -0.46, 62.70 133.12 80
3 06/03/2024 17:31:37 0.19, 61.51 -0.54, 58.10 388.09 80
4 06/04/2024 17:08:14 0.20, 61.50 0.57, 63.10 183.20 80
5 06/06/2024 05:29:41 -0.18, 61.46 0.46, 58.55 331.71 80
6 06/07/2024 05:06:18 -0.20, 61.45 -0.65, 63.55 238.86 80
7 06/08/2024 17:27:55 0.19, 61.45 -0.34, 58.96 283.47 80
8 06/09/2024 17:04:32 0.21, 61.44 0.78, 63.96 287.30 80
9 06/11/2024 05:25:58 -0.19, 61.41 0.24, 59.40 227.65 80
10 06/12/2024 05:02:36 -0.21, 61.40 -0.88, 64.40 342.84 80
11 06/13/2024 17:24:11 0.19, 61.39 -0.15, 59.82 179.49 80
12 06/14/2024 17:00:49 0.21, 61.38 0.98, 64.81 391.27 80
